This demonstration page uses our WeatherBlox Daily Observations layout. Learn more.

Left ArrowRight Arrow

Hourly Observations for May 23, 2022

Temp ( °F °C ) Dew Point ( °F °C ) Humidity (%) Winds ( mph kmh ) Pressure ( in mb ) Visibility ( mi km ) Precip ( " mm )
12:15 am 00:15 Clear with Light Rain 70 21 64 18 83 83 N 12 19 30.14 1021 10 16 0.00 0.00
12:35 am 00:35 Clear with Drizzle 68 20 64 18 88 88 N 7 11 30.14 1021 10 16 0.00 0.00
12:55 am 00:55 Partly Cloudy 68 20 64 18 88 88 NNW 7 11 30.15 1021 10 16 0.00 0.00
1:15 am 01:15 Clear 68 20 63 17 83 83 N 9 15 30.16 1021 10 16 0.00 0.00
1:35 am 01:35 Partly Cloudy 68 20 61 16 78 78 N 12 19 30.16 1021 10 16 0.00 0.00
1:55 am 01:55 Partly Cloudy 66 19 59 15 78 78 N 8 13 30.17 1022 10 16 0.00 0.00
2:15 am 02:15 Clear 64 18 59 15 83 83 undefined N/A 30.17 1022 10 16 0.00 0.00
2:35 am 02:35 Clear 64 18 57 14 78 78 N 13 20 30.16 1021 10 16 0.00 0.00
2:55 am 02:55 Clear 63 17 57 14 83 83 NNW 9 15 30.17 1022 10 16 0.00 0.00
3:15 am 03:15 Clear 63 17 55 13 77 77 NNW 9 15 30.16 1021 10 16 0.00 0.00
3:35 am 03:35 Clear 63 17 55 13 77 77 NNW 9 15 30.17 1022 10 16 0.00 0.00
3:55 am 03:55 Clear 61 16 55 13 83 83 NNW 10 17 30.17 1022 10 16 0.00 0.00
4:15 am 04:15 Clear 63 17 55 13 77 77 NNW 12 19 30.18 1022 10 16 0.00 0.00
4:35 am 04:35 Clear 61 16 54 12 77 77 N 10 17 30.18 1022 10 16 0.00 0.00
4:55 am 04:55 Clear 61 16 54 12 77 77 NNW 9 15 30.18 1022 10 16 0.00 0.00
5:15 am 05:15 Clear 61 16 54 12 77 77 N 10 17 30.19 1022 10 16 0.00 0.00
5:35 am 05:35 Clear 61 16 54 12 77 77 NNW 9 15 30.20 1023 10 16 0.00 0.00
5:55 am 05:55 Sunny 59 15 54 12 82 82 N 8 13 30.21 1023 10 16 0.00 0.00
6:15 am 06:15 Sunny 59 15 54 12 82 82 NNW 8 13 30.21 1023 10 16 0.00 0.00
6:35 am 06:35 Sunny 59 15 54 12 82 82 N 5 7 30.21 1023 10 16 0.00 0.00
6:55 am 06:55 Sunny 59 15 54 12 82 82 NNW 8 13 30.23 1024 10 16 0.00 0.00
7:15 am 07:15 Sunny 59 15 54 12 82 82 NNW 8 13 30.24 1024 10 16 0.00 0.00
7:35 am 07:35 Partly Cloudy 61 16 54 12 77 77 N 8 13 30.25 1024 10 16 0.00 0.00
7:55 am 07:55 Mostly Cloudy 61 16 54 12 77 77 N 8 13 30.25 1024 10 16 0.00 0.00
8:15 am 08:15 Mostly Cloudy 61 16 54 12 77 77 NE 7 11 30.25 1024 10 16 0.00 0.00
8:35 am 08:35 Mostly Cloudy 63 17 54 12 73 73 NE 10 17 30.26 1025 10 16 0.00 0.00
8:55 am 08:55 Partly Cloudy 63 17 52 11 68 68 NNE 13 20 30.26 1025 10 16 0.00 0.00
9:15 am 09:15 Sunny 64 18 52 11 64 64 ENE 9 15 30.26 1025 10 16 0.00 0.00
9:35 am 09:35 Sunny 64 18 52 11 64 64 NE 8 13 30.27 1025 10 16 0.00 0.00
10:15 am 10:15 Sunny 64 18 52 11 64 64 NE 13 20 30.27 1025 10 16 0.00 0.00
10:35 am 10:35 Sunny 64 18 54 12 68 68 NNE 9 15 30.27 1025 10 16 0.00 0.00
10:55 am 10:55 Sunny 66 19 52 11 60 60 NNE 9 15 30.27 1025 10 16 0.00 0.00
11:15 am 11:15 Sunny 66 19 52 11 60 60 NNE 10 17 30.27 1025 10 16 0.00 0.00
11:35 am 11:35 Sunny 68 20 52 11 56 56 NNE 7 11 30.26 1025 10 16 0.00 0.00
11:55 am 11:55 Sunny 68 20 52 11 56 56 NE 9 15 30.26 1025 10 16 0.00 0.00
12:15 pm 12:15 Mostly Cloudy 68 20 52 11 56 56 N 6 9 30.26 1025 10 16 0.00 0.00
12:35 pm 12:35 Cloudy 68 20 52 11 56 56 NNE 12 19 30.26 1025 10 16 0.00 0.00
12:55 pm 12:55 Mostly Cloudy 70 21 52 11 53 53 N 7 11 30.25 1024 10 16 0.00 0.00
1:15 pm 13:15 Mostly Cloudy 70 21 50 10 50 50 NE 7 11 30.25 1024 10 16 0.00 0.00
1:35 pm 13:35 Cloudy 70 21 50 10 50 50 NNE 8 13 30.24 1024 10 16 0.00 0.00
1:55 pm 13:55 Cloudy 70 21 50 10 50 50 NE 10 17 30.23 1024 10 16 0.00 0.00
2:15 pm 14:15 Cloudy 70 21 52 11 53 53 ENE 10 17 30.23 1024 10 16 0.00 0.00
2:35 pm 14:35 Cloudy 70 21 52 11 53 53 NE 9 15 30.22 1023 10 16 0.00 0.00
2:55 pm 14:55 Cloudy 70 21 52 11 53 53 NE 8 13 30.22 1023 10 16 0.00 0.00
3:15 pm 15:15 Cloudy 70 21 52 11 53 53 NE 6 9 30.21 1023 10 16 0.00 0.00
3:35 pm 15:35 Cloudy 70 21 52 11 53 53 NE 6 9 30.22 1023 10 16 0.00 0.00
3:55 pm 15:55 Cloudy 68 20 52 11 56 56 NE 7 11 30.22 1023 10 16 0.00 0.00
4:15 pm 16:15 Cloudy 68 20 52 11 56 56 NE 6 9 30.22 1023 10 16 0.00 0.00
4:35 pm 16:35 Cloudy 68 20 52 11 56 56 NNE 3 6 30.22 1023 10 16 0.00 0.00
4:55 pm 16:55 Cloudy with Light Rain 68 20 52 11 56 56 NNE 7 11 30.21 1023 10 16 0.00 0.00
5:15 pm 17:15 Cloudy 68 20 52 11 56 56 NE 6 9 30.22 1023 10 16 0.00 0.00
5:35 pm 17:35 Cloudy 68 20 52 11 56 56 NE 8 13 30.22 1023 10 16 0.00 0.00
5:55 pm 17:55 Cloudy 68 20 52 11 56 56 NE 7 11 30.21 1023 10 16 0.00 0.00
6:15 pm 18:15 Cloudy 68 20 52 11 56 56 NE 8 13 30.20 1023 10 16 0.00 0.00
6:35 pm 18:35 Cloudy 68 20 50 10 53 53 NNE 8 13 30.20 1023 10 16 0.00 0.00
6:55 pm 18:55 Cloudy 66 19 50 10 56 56 NNE 10 17 30.20 1023 10 16 0.00 0.00
7:15 pm 19:15 Cloudy 64 18 52 11 64 64 NNE 7 11 30.20 1023 10 16 0.00 0.00
7:35 pm 19:35 Cloudy with Light Rain 64 18 52 11 64 64 NNE 7 11 30.20 1023 10 16 0.00 0.00
7:55 pm 19:55 Cloudy with Rain 63 17 54 12 73 73 N 5 7 30.23 1024 10 16 0.00 0.00
8:15 pm 20:15 Cloudy with Light Rain 63 17 55 13 77 77 Calm 30.23 1024 10 16 0.00 0.00
8:35 pm 20:35 Mostly Cloudy with Light Rain 61 16 55 13 83 83 Calm 30.23 1024 10 16 0.01 0.25
8:55 pm 20:55 Mostly Cloudy with Light Rain 61 16 55 13 83 83 NNE 3 6 30.23 1024 10 16 0.01 0.25
9:15 pm 21:15 Mostly Cloudy with Light Rain 61 16 55 13 83 83 NE 3 6 30.23 1024 10 16 0.00 0.00
9:35 pm 21:35 Mostly Cloudy with Drizzle 61 16 55 13 83 83 NNE 3 6 30.23 1024 10 16 0.00 0.00
9:55 pm 21:55 Partly Cloudy with Drizzle 61 16 57 14 88 88 NNW 3 6 30.23 1024 10 16 0.00 0.00
10:15 pm 22:15 Partly Cloudy with Drizzle 59 15 57 14 94 94 NNW 3 6 30.23 1024 10 16 0.01 0.25
10:35 pm 22:35 Partly Cloudy with Drizzle 59 15 57 14 94 94 Calm 30.23 1024 10 16 0.01 0.25
10:55 pm 22:55 Clear with Light Rain 59 15 57 14 94 94 N 3 6 30.23 1024 10 16 0.01 0.25
11:15 pm 23:15 Partly Cloudy with Light Rain 59 15 57 14 94 94 NNE 3 6 30.23 1024 10 16 0.00 0.00
11:35 pm 23:35 Partly Cloudy with Light Rain 59 15 55 13 88 88 N 6 9 30.24 1024 10 16 0.00 0.00
11:55 pm 23:55 Cloudy with Light Rain 59 15 55 13 88 88 N 5 7 30.24 1024 10 16 0.00 0.00

Powered by AerisWeather